Wind_Speed
16 16 16 16 16 16 16 17 17 17 17 16 16 17 17 17 17 18 18 18 19 19 19 19 20 20 19 19 19 19 19 19 20 20 20 20 20 20
19 19 19 20 20 20 20 21 21 21 21 21 20 21 21 21 21 22 22 22 22 23 23 24 24 24 23 23 23 23 22 22 22 22 23 23 23 23
22 22 22 23 23 23 24 24 25 25 25 25 24 24 24 25 25 25 25 26 26 27 27 27 28 28 28 27 27 27 26 26 26 25 25 25 26 25
24 24 25 25 26 27 27 27 28 28 29 29 29 28 28 29 29 30 30 30 30 31 31 31 32 32 32 32 31 31 30 30 30 29 29 29 29 29
26 26 27 28 28 29 30 30 30 31 31 32 32 32 32 32 33 33 34 35 35 35 35 35 35 36 36 36 35 35 35 34 34 34 33 33 32 32
26 28 29 29 30 31 31 32 33 33 34 34 35 35 36 36 37 37 37 38 38 39 38 38 38 38 38 38 38 38 38 38 38 38 37 37 37 36
27 28 29 30 32 32 33 34 35 36 37 37 38 39 39 40 39 40 40 41 41 42 42 40 40 40 40 40 40 41 41 41 41 41 41 40 40 40
28 30 31 31 32 33 35 36 37 37 39 40 40 41 41 41 41 42 43 42 42 42 43 42 42 42 43 43 43 44 44 44 44 44 43 43 43 42
30 31 31 32 33 34 35 36 37 38 39 40 41 41 42 43 43 44 44 44 44 44 45 45 45 46 46 46 46 46 46 46 46 46 46 45 44 44
31 32 33 35 35 36 37 38 40 40 41 42 42 43 44 45 46 46 46 47 47 47 48 48 48 48 48 48 47 47 47 47 47 48 48 48 47 47
33 33 34 35 36 38 39 40 41 43 44 45 45 46 47 47 48 48 49 49 48 48 49 50 49 49 49 48 48 49 48 48 48 48 48 49 49 49
34 35 36 38 40 41 42 43 44 45 46 48 49 49 49 49 49 50 51 51 51 51 51 52 53 53 51 50 50 51 51 52 51 51 51 51 51 51
37 38 39 41 42 44 45 46 47 48 49 50 51 52 53 54 54 54 54 54 54 54 53 54 54 55 55 53 52 53 53 53 53 52 52 52 52 52
40 42 43 44 46 47 48 49 51 52 53 54 55 56 56 57 56 57 57 57 57 57 57 57 57 57 57 56 55 54 53 53 53 53 53 53 53 53
44 45 47 48 49 51 52 53 54 56 57 58 59 59 60 60 59 59 59 58 58 59 59 59 60 59 59 58 57 55 55 54 54 54 54 53 53 53
47 49 50 52 53 54 55 56 57 58 59 59 60 60 61 61 61 61 60 60 59 59 59 60 59 59 58 57 56 56 56 55 55 55 55 54 54 54
50 52 53 54 55 56 57 58 58 58 58 58 59 59 59 59 59 59 59 59 59 59 58 57 57 56 55 55 54 54 54 54 54 54 54 53 53 54
53 54 55 56 56 57 57 58 58 57 57 57 57 57 57 56 56 55 55 55 54 54 54 53 53 52 51 51 52 51 50 50 50 50 50 50 50 49
54 55 55 55 56 56 55 55 55 54 54 53 53 52 52 52 52 51 51 50 49 48 48 48 48 48 47 46 45 47 46 45 45 45 45 45 45 45
53 54 54 53 53 52 52 51 51 50 49 49 48 47 47 46 46 46 45 44 44 43 43 43 43 43 42 41 40 40 42 41 41 40 40 41 40 40
51 50 50 49 49 48 47 47 46 45 44 44 43 43 42 42 42 41 41 40 40 39 39 38 39 38 37 36 35 34 35 36 36 35 35 35 35 35
47 47 46 46 45 44 44 43 42 41 41 41 40 40 39 39 38 37 36 35 35 34 34 33 33 33 33 32 30 29 30 30 31 30 30 30 30 31
44 44 43 42 42 41 40 39 39 38 38 38 37 37 36 35 33 32 32 31 30 29 29 29 29 29 28 27 26 25 25 26 26 27 28 29 29 29
Wind_Direction
268 271 274 276 278 281 284 287 288 290 290 291 292 293 292 292 292 292 292 291 291 291 291 291 291 290 289 288 286 285 284 282 281 281 280 278 276 275
269 272 274 276 279 280 283 285 286 287 287 287 288 289 290 289 289 288 288 288 288 288 288 288 288 288 287 286 285 284 283 282 281 280 278 277 277 276
269 271 273 275 277 279 280 283 285 286 287 287 287 286 288 288 287 286 286 285 285 285 285 285 285 284 284 283 282 282 281 281 280 280 279 278 277 275
270 271 273 275 277 278 279 281 283 284 285 285 285 286 287 287 286 285 284 284 284 284 283 283 283 282 281 281 280 279 279 279 278 278 277 277 277 276
271 272 273 275 276 277 278 280 281 282 283 283 283 284 285 285 284 284 284 284 283 283 282 282 281 281 280 279 278 278 277 277 277 276 276 275 275 274
274 276 276 276 277 278 279 280 280 281 281 281 282 283 285 285 284 283 283 283 283 282 280 280 280 280 279 279 278 277 277 276 275 275 275 275 274 273
276 277 278 279 281 281 281 280 280 281 282 282 282 282 283 284 283 282 282 282 282 281 280 279 278 278 277 277 276 276 276 275 274 273 273 273 273 273
279 280 282 284 283 283 284 284 284 283 282 282 283 283 283 283 284 283 282 281 280 280 279 278 277 277 275 275 275 275 274 273 272 272 271 272 272 271
281 282 285 284 285 286 286 287 286 285 284 283 283 283 282 282 283 283 283 281 280 280 279 279 278 277 276 275 275 275 274 272 271 271 271 271 271 271
284 284 284 285 286 287 286 287 287 286 284 285 285 283 282 282 283 283 282 282 281 279 279 279 278 277 276 276 276 276 274 273 272 272 271 270 270 270
286 287 287 287 287 288 288 288 287 286 284 284 284 284 284 283 282 282 281 281 280 279 278 279 278 278 277 276 275 274 273 273 273 272 271 271 271 271
287 288 288 288 288 288 288 288 287 287 286 285 285 284 283 283 284 283 282 281 281 279 278 278 278 277 276 275 275 274 274 273 273 272 271 270 270 270
288 288 288 288 289 289 289 288 288 288 287 286 285 285 284 284 285 284 283 282 280 280 279 278 278 277 276 276 275 275 275 274 273 273 272 271 270 270
290 290 290 290 289 289 289 289 288 288 287 286 286 285 284 284 283 282 282 281 281 280 279 278 278 277 277 276 276 275 274 274 274 273 273 272 271 270
292 292 291 291 291 291 290 289 289 288 287 287 286 285 285 284 284 283 282 281 281 280 279 279 278 278 277 276 275 274 273 273 273 273 272 272 272 271
293 293 293 293 292 291 291 290 289 288 288 287 287 286 286 285 284 283 282 281 280 279 278 277 277 277 276 276 275 273 272 271 271 271 271 271 271 271
295 294 294 293 292 292 291 291 290 289 289 288 287 287 286 285 285 284 283 282 280 279 277 277 277 276 276 275 275 274 273 272 271 271 271 271 271 272
296 296 295 295 294 294 293 293 292 291 290 289 289 288 288 287 286 285 284 283 282 281 279 278 277 276 276 276 276 275 273 272 271 271 271 270 270 270
298 298 297 296 297 296 296 295 294 293 292 291 291 290 289 288 288 287 286 284 284 282 281 279 278 278 277 276 276 276 275 273 272 271 271 270 270 269
300 299 299 299 299 298 297 296 295 294 294 293 292 292 291 291 290 289 287 286 284 283 282 281 281 280 279 277 275 275 275 275 273 273 272 271 270 269
302 302 301 300 300 299 299 298 297 296 296 295 295 294 293 293 292 292 290 288 286 285 283 282 282 281 280 279 277 275 275 275 275 275 274 272 271 270
303 303 302 302 301 301 301 300 299 298 298 297 297 296 295 295 295 294 292 290 288 286 284 282 281 280 280 279 278 276 275 274 275 276 276 275 274 273
304 304 304 304 304 303 303 302 301 301 301 300 299 298 297 296 296 296 294 293 291 288 286 284 283 282 280 279 278 276 275 274 274 276 276 277 278 278
Height
5868 5869 5869 5869 5869 5869 5869 5869 5869 5869 5869 5869 5868 5867 5867 5866 5866 5865 5865 5864 5864 5863 5863 5863 5862 5862 5861 5861 5860 5860 5860 5859 5859 5859 5859 5859 5859 5859
5865 5865 5865 5865 5865 5865 5865 5864 5864 5864 5864 5864 5863 5863 5862 5862 5861 5860 5860 5859 5859 5858 5858 5857 5857 5856 5856 5855 5855 5854 5854 5854 5853 5853 5853 5853 5853 5853
5860 5860 5860 5860 5860 5860 5860 5859 5859 5859 5858 5858 5857 5857 5856 5855 5855 5854 5854 5853 5853 5852 5851 5851 5850 5849 5849 5848 5848 5848 5847 5847 5846 5846 5846 5846 5846 5846
5854 5855 5855 5855 5854 5854 5854 5853 5853 5852 5852 5851 5850 5850 5850 5848 5848 5847 5846 5846 5845 5845 5844 5843 5842 5841 5841 5840 5840 5840 5839 5839 5838 5838 5838 5838 5838 5838
5848 5848 5848 5848 5848 5847 5847 5846 5846 5845 5845 5844 5843 5842 5842 5841 5840 5839 5838 5837 5836 5836 5835 5834 5833 5832 5832 5831 5831 5830 5830 5829 5829 5829 5829 5829 5829 5829
5841 5841 5841 5841 5840 5840 5839 5839 5838 5837 5837 5835 5835 5834 5833 5831 5830 5829 5828 5827 5826 5825 5824 5824 5823 5822 5822 5821 5820 5820 5819 5819 5818 5818 5818 5818 5818 5818
5835 5834 5834 5833 5832 5831 5831 5830 5829 5828 5827 5826 5825 5824 5823 5821 5820 5818 5817 5816 5815 5814 5813 5813 5812 5812 5811 5810 5809 5809 5808 5808 5807 5807 5806 5806 5806 5806
5828 5827 5826 5826 5825 5823 5822 5821 5820 5819 5818 5816 5815 5814 5812 5810 5809 5807 5806 5805 5804 5803 5801 5801 5799 5799 5799 5798 5797 5796 5796 5795 5794 5794 5793 5793 5793 5794
5820 5819 5818 5817 5816 5815 5813 5811 5810 5808 5807 5805 5804 5803 5801 5799 5797 5795 5794 5793 5792 5790 5788 5788 5787 5786 5785 5784 5784 5783 5782 5781 5781 5780 5780 5780 5780 5780
5812 5811 5810 5808 5806 5805 5803 5802 5799 5797 5796 5794 5792 5791 5789 5787 5784 5783 5781 5779 5778 5776 5774 5774 5773 5772 5771 5770 5769 5768 5768 5767 5766 5766 5765 5765 5765 5765
5803 5802 5800 5798 5796 5794 5793 5791 5788 5786 5784 5782 5780 5777 5775 5773 5771 5769 5767 5765 5764 5762 5760 5758 5758 5757 5756 5755 5754 5753 5752 5752 5751 5751 5750 5750 5750 5750
5794 5792 5790 5788 5786 5783 5781 5779 5776 5774 5771 5768 5766 5763 5761 5758 5756 5754 5752 5750 5748 5747 5745 5743 5741 5740 5741 5740 5738 5737 5736 5736 5735 5735 5734 5734 5734 5733
5783 5782 5779 5776 5774 5771 5768 5766 5763 5760 5757 5754 5751 5748 5745 5743 5740 5737 5735 5733 5731 5729 5727 5725 5724 5722 5722 5723 5722 5720 5719 5718 5718 5718 5718 5717 5717 5717
5772 5770 5767 5765 5762 5758 5755 5752 5748 5745 5742 5738 5735 5732 5729 5726 5723 5720 5717 5715 5712 5711 5709 5706 5705 5704 5704 5704 5704 5703 5701 5701 5700 5700 5700 5700 5700 5699
5761 5757 5754 5751 5748 5744 5741 5737 5733 5729 5725 5721 5717 5714 5710 5707 5704 5701 5698 5696 5693 5691 5689 5687 5685 5684 5684 5684 5684 5684 5683 5682 5681 5681 5681 5681 5681 5681
5748 5744 5741 5737 5733 5728 5724 5720 5716 5711 5707 5703 5699 5695 5691 5687 5684 5681 5679 5676 5674 5671 5668 5666 5665 5664 5663 5663 5663 5663 5662 5663 5663 5662 5662 5663 5663 5662
5734 5730 5726 5721 5716 5711 5707 5702 5697 5693 5688 5684 5679 5675 5671 5668 5664 5661 5658 5655 5653 5651 5649 5647 5645 5644 5644 5643 5643 5642 5642 5642 5642 5642 5642 5644 5644 5643
5718 5714 5709 5704 5698 5693 5688 5683 5678 5674 5669 5665 5660 5656 5653 5649 5645 5642 5638 5636 5633 5632 5630 5628 5626 5626 5625 5625 5623 5623 5623 5623 5623 5622 5622 5624 5625 5624
5702 5697 5692 5686 5681 5675 5670 5665 5660 5656 5651 5647 5643 5639 5635 5631 5627 5624 5621 5618 5616 5614 5612 5610 5608 5608 5608 5609 5608 5604 5604 5604 5604 5605 5605 5605 5607 5607
5686 5681 5675 5670 5664 5659 5654 5649 5644 5639 5635 5631 5627 5623 5619 5616 5612 5609 5605 5603 5601 5599 5597 5595 5593 5592 5592 5592 5593 5591 5588 5588 5589 5589 5590 5590 5590 5591
5671 5666 5660 5655 5650 5644 5639 5634 5630 5625 5621 5617 5613 5609 5605 5602 5598 5595 5592 5589 5587 5585 5583 5582 5580 5578 5578 5578 5579 5578 5576 5575 5575 5575 5575 5576 5576 5577
5658 5652 5647 5642 5637 5632 5627 5622 5617 5613 5609 5604 5600 5597 5593 5590 5586 5583 5580 5577 5575 5573 5571 5570 5568 5567 5566 5566 5566 5566 5566 5565 5564 5564 5563 5563 5563 5564
5646 5640 5635 5630 5625 5620 5615 5610 5606 5602 5597 5593 5589 5585 5582 5579 5576 5573 5570 5567 5565 5563 5561 5560 5558 5557 5556 5556 5556 5556 5556 5555 5555 5555 5554 5553 5553 5552